Location: Brest
(52.1000°N, 23.7000°E)
Time: 08:26:11
(UTC+03:00)

ISS - Visible Passes

Search period start: 23 September 2017 00:00
Search period end: 03 October 2017 00:00
Orbit: 401 x 407 km, 51.6° (Epoch: 23 September)

Date Brightness Start Highest point End Pass type
(mag) Time Alt. Az. Time Alt. Az. Time Alt. Az.
26 Sep -1.3 21:29:13 10° SW 21:29:49 14° SSW 21:29:49 14° SSW visible
27 Sep -2.4 20:37:21 10° SSW 20:39:58 22° SSE 20:39:58 22° SSE visible
28 Sep -1.8 19:45:52 10° S 19:47:49 15° SE 19:49:45 10° ESE visible
28 Sep -2.6 21:20:33 10° WSW 21:22:37 32° SW 21:22:37 32° SW visible
29 Sep -3.1 20:28:23 10° SW 20:31:26 36° SSE 20:32:28 28° ESE visible
29 Sep -1.0 22:04:26 10° W 22:05:07 15° W 22:05:07 15° W visible
30 Sep -2.5 19:36:25 10° SSW 19:39:10 25° SSE 19:41:56 10° E visible
30 Sep -3.5 21:12:03 10° WSW 21:14:51 58° SW 21:14:51 58° SW visible
01 Oct -3.6 20:19:43 10° WSW 20:22:56 56° SSE 20:24:31 26° E visible
01 Oct -1.2 21:56:03 10° W 21:57:10 20° W 21:57:10 20° W visible
02 Oct -3.1 19:27:29 10° SW 19:30:35 41° SSE 19:33:41 10° E visible
02 Oct -3.9 21:03:37 10° W 21:06:45 79° SW 21:06:45 79° SW visible
